Weather History for KDVL - July, 2013

Change the Weather History Date:

Sunday, July 7, 2013

  Actual Average Record
Temperature  
Mean Temperature 70 °F -  
Max Temperature 77 °F 80 °F 98 °F (1948)
Min Temperature 62 °F 59 °F 46 °F (1953)
Cooling Degree Days 4    
Growing Degree Days 20 (Base 50)    
Moisture  
Dew Point 57 °F    
Average Humidity 63    
Maximum Humidity 83    
Minimum Humidity 47    
Precipitation  
Precipitation 0.46 in - - ()
Sea Level Pressure  
Sea Level Pressure 29.91 in    
Wind  
Wind Speed 10 mph (WNW)    
Max Wind Speed 18 mph    
Max Gust Speed 40 mph    
Visibility 10 miles    
Events Thunderstorm    
Averages and records for this station are not official NWS values.
T = Trace of Precipitation, MM = Missing Value Source: NWS Daily Summary

Daily Weather History Graph

Daily Weather History Graph

Search for Another Location

Airport or City:

Trip Planner

Search our weather history database for the weather conditions in past years. The results will help you decide how hot, cold, wet, or windy it might be!

Date:

Astronomy

Jul. 07, 2013 Rise Set
Actual Time 5:44 AM CDT 9:36 PM CDT
Civil Twilight 5:03 AM CDT 10:17 PM CDT
Nautical Twilight 4:08 AM CDT 11:12 PM CDT
Astronomical Twilight 2:42 AM CDT 12:36 AM CDT
Moon 5:26 AM CDT (7/7) 8:54 PM CDT (7/7)
Length of Visible Light 17h 13m
Length of Day
15h 52m
Waning Crescent, 0% of the Moon is Illuminated
Jul 7
Waning Crescent
Jul 8
New
Jul 15
First Quarter
Jul 22
Full
Jul 29
Last Quarter

Hourly Weather History & Observations

Time (CDT) Temp. Dew Point Humidity Pressure Visibility Wind Dir Wind Speed Gust Speed Precip Events Conditions
12:15 AM 73.4 °F 68.0 °F 83% 29.79 in 10.0 mi South 10.4 mph - N/A Thunderstorm Clear
12:35 AM 73.4 °F 68.0 °F 83% 29.80 in 10.0 mi South 8.1 mph - N/A Thunderstorm Thunderstorm
12:55 AM 69.8 °F 60.8 °F 73% 29.83 in 2.0 mi South 10.4 mph 40.3 mph 0.45 in Thunderstorm Thunderstorm
1:15 AM 69.8 °F 60.8 °F 73% 29.84 in 10.0 mi Calm Calm - N/A Thunderstorm Thunderstorm
1:35 AM 66.2 °F 60.8 °F 83% 29.83 in 10.0 mi West 9.2 mph - 0.01 in   Clear
1:55 AM 69.8 °F 62.6 °F 78% 29.84 in 10.0 mi West 9.2 mph - 0.01 in   Clear
2:15 AM 68.0 °F 60.8 °F 78% 29.83 in 10.0 mi WNW 11.5 mph - N/A   Partly Cloudy
2:35 AM 69.8 °F 57.2 °F 64% 29.84 in 10.0 mi WNW 12.7 mph - N/A   Partly Cloudy
2:55 AM 68.0 °F 59.0 °F 73% 29.84 in 10.0 mi WNW 13.8 mph - N/A   Clear
3:15 AM 68.0 °F 57.2 °F 68% 29.84 in 10.0 mi WNW 11.5 mph - N/A   Clear
3:35 AM 66.2 °F 59.0 °F 78% 29.84 in 10.0 mi WNW 10.4 mph - N/A   Clear
3:55 AM 66.2 °F 57.2 °F 73% 29.85 in 10.0 mi WNW 12.7 mph - N/A   Clear
4:15 AM 66.2 °F 57.2 °F 73% 29.85 in 10.0 mi WNW 11.5 mph - N/A   Clear
4:35 AM 66.2 °F 57.2 °F 73% 29.85 in 10.0 mi WNW 11.5 mph - N/A   Clear
4:55 AM 64.4 °F 57.2 °F 77% 29.86 in 10.0 mi WNW 10.4 mph - N/A   Clear
5:15 AM 64.4 °F 57.2 °F 77% 29.86 in 10.0 mi NW 10.4 mph - N/A   Clear
5:35 AM 64.4 °F 55.4 °F 73% 29.87 in 10.0 mi NW 8.1 mph - N/A   Clear
5:55 AM 62.6 °F 55.4 °F 77% 29.87 in 10.0 mi NW 5.8 mph - N/A   Clear
6:15 AM 62.6 °F 55.4 °F 77% 29.88 in 10.0 mi WNW 5.8 mph - N/A   Clear
6:35 AM 62.6 °F 55.4 °F 77% 29.89 in 10.0 mi WNW 6.9 mph - N/A   Clear
6:55 AM 64.4 °F 55.4 °F 73% 29.89 in 10.0 mi WNW 9.2 mph - N/A   Clear
7:15 AM 64.4 °F 55.4 °F 73% 29.89 in 10.0 mi NW 8.1 mph - N/A   Clear
7:35 AM 66.2 °F 55.4 °F 68% 29.89 in 10.0 mi NW 8.1 mph - N/A   Clear
7:55 AM 66.2 °F 55.4 °F 68% 29.90 in 10.0 mi West 8.1 mph - N/A   Clear
8:15 AM 68.0 °F 55.4 °F 64% 29.90 in 10.0 mi WNW 13.8 mph - N/A   Clear
8:35 AM 69.8 °F 55.4 °F 60% 29.90 in 10.0 mi WNW 15.0 mph - N/A   Clear
8:55 AM 69.8 °F 53.6 °F 56% 29.91 in 10.0 mi WNW 16.1 mph - N/A   Clear
9:15 AM 69.8 °F 55.4 °F 60% 29.91 in 10.0 mi NW 15.0 mph 19.6 mph N/A   Clear
9:35 AM 69.8 °F 55.4 °F 60% 29.90 in 10.0 mi NW 18.4 mph 23.0 mph N/A   Clear
9:55 AM 71.6 °F 55.4 °F 57% 29.91 in 10.0 mi NW 17.3 mph 21.9 mph N/A   Clear
10:15 AM 71.6 °F 55.4 °F 57% 29.92 in 10.0 mi WNW 17.3 mph 20.7 mph N/A   Clear
10:35 AM 71.6 °F 53.6 °F 53% 29.92 in 10.0 mi NW 15.0 mph - N/A   Clear
10:55 AM 71.6 °F 55.4 °F 57% 29.92 in 10.0 mi NW 17.3 mph - N/A   Clear
11:15 AM 71.6 °F 55.4 °F 57% 29.93 in 10.0 mi WNW 15.0 mph - N/A   Clear
11:35 AM 71.6 °F 53.6 °F 53% 29.92 in 10.0 mi WNW 12.7 mph - N/A   Clear
11:55 AM 71.6 °F 55.4 °F 57% 29.93 in 10.0 mi WNW 11.5 mph - N/A   Clear
12:15 PM 71.6 °F 55.4 °F 57% 29.94 in 10.0 mi WNW 12.7 mph 16.1 mph N/A   Clear
12:35 PM 73.4 °F 53.6 °F 50% 29.93 in 10.0 mi WNW 12.7 mph - N/A   Clear
12:55 PM 73.4 °F 55.4 °F 53% 29.94 in 10.0 mi West 10.4 mph - N/A   Clear
1:15 PM 73.4 °F 53.6 °F 50% 29.94 in 10.0 mi NW 8.1 mph - N/A   Clear
1:35 PM 73.4 °F 53.6 °F 50% 29.95 in 10.0 mi West 10.4 mph - N/A   Clear
1:55 PM 73.4 °F 55.4 °F 53% 29.95 in 10.0 mi WNW 11.5 mph - N/A   Clear
2:15 PM 73.4 °F 55.4 °F 53% 29.97 in 10.0 mi WNW 12.7 mph - N/A   Clear
2:35 PM 73.4 °F 55.4 °F 53% 29.96 in 10.0 mi WNW 11.5 mph - N/A   Clear
2:55 PM 73.4 °F 57.2 °F 57% 29.96 in 10.0 mi West 15.0 mph - N/A   Clear
3:15 PM 73.4 °F 57.2 °F 57% 29.95 in 10.0 mi West 12.7 mph - N/A   Clear
3:35 PM 73.4 °F 57.2 °F 57% 29.96 in 10.0 mi West 11.5 mph - N/A   Scattered Clouds
3:55 PM 73.4 °F 57.2 °F 57% 29.96 in 10.0 mi WNW 12.7 mph - N/A   Partly Cloudy
4:15 PM 73.4 °F 57.2 °F 57% 29.96 in 10.0 mi WNW 11.5 mph - N/A   Clear
4:35 PM 73.4 °F 55.4 °F 53% 29.95 in 10.0 mi West 12.7 mph 17.3 mph N/A   Clear
4:55 PM 75.2 °F 57.2 °F 53% 29.95 in 10.0 mi West 12.7 mph 16.1 mph N/A   Clear
5:15 PM 75.2 °F 57.2 °F 53% 29.95 in 10.0 mi WSW 11.5 mph - N/A   Clear
5:35 PM 75.2 °F 57.2 °F 53% 29.95 in 10.0 mi West 11.5 mph - N/A   Clear
5:55 PM 77.0 °F 57.2 °F 50% 29.94 in 10.0 mi West 9.2 mph 16.1 mph N/A   Clear
6:15 PM 77.0 °F 55.4 °F 47% 29.95 in 10.0 mi WNW 9.2 mph 17.3 mph N/A   Clear
6:35 PM 77.0 °F 55.4 °F 47% 29.94 in 10.0 mi WNW 10.4 mph - N/A   Clear
6:55 PM 77.0 °F 55.4 °F 47% 29.94 in 10.0 mi WNW 11.5 mph - N/A   Clear
7:15 PM 77.0 °F 55.4 °F 47% 29.94 in 10.0 mi WNW 9.2 mph - N/A   Clear
7:35 PM 77.0 °F 55.4 °F 47% 29.93 in 10.0 mi WNW 11.5 mph - N/A   Clear
7:55 PM 75.2 °F 57.2 °F 53% 29.93 in 10.0 mi WNW 9.2 mph - N/A   Clear
8:15 PM 75.2 °F 57.2 °F 53% 29.93 in 10.0 mi WNW 8.1 mph - N/A   Clear
8:35 PM 75.2 °F 57.2 °F 53% 29.94 in 10.0 mi WNW 6.9 mph - N/A   Clear
8:55 PM 73.4 °F 59.0 °F 61% 29.93 in 10.0 mi WNW 4.6 mph - N/A   Clear
9:15 PM 73.4 °F 59.0 °F 61% 29.94 in 10.0 mi WNW 4.6 mph - N/A   Clear
9:35 PM 73.4 °F 59.0 °F 61% 29.95 in 10.0 mi West 3.5 mph - N/A   Clear
9:55 PM 71.6 °F 57.2 °F 60% 29.95 in 10.0 mi West 3.5 mph - N/A   Clear
10:15 PM 71.6 °F 57.2 °F 60% 29.96 in 10.0 mi Calm Calm - N/A   Clear
10:35 PM 69.8 °F 60.8 °F 73% 29.97 in 10.0 mi Calm Calm - N/A   Clear
10:55 PM 68.0 °F 60.8 °F 78% 29.97 in 10.0 mi Calm Calm - N/A   Clear
11:15 PM 66.2 °F 59.0 °F 78% 29.97 in 10.0 mi Calm Calm - N/A   Clear
11:35 PM 66.2 °F 59.0 °F 78% 29.97 in 10.0 mi Calm Calm - N/A   Clear
11:55 PM 64.4 °F 57.2 °F 77% 29.97 in 10.0 mi Calm Calm - N/A   Clear